Location: *
(48.7358°N, 0.3111°E)
Time: 23:01:46
(UTC+00:00)

Cosmos 1943 - Pass Details

Date: 22 October 2019
Orbit: 834 x 849 km, 71.0° (Epoch: 11 November)

Event Time Altitude Azimuth Distance (km) Brightness Sun altitude
Rises 05:37:03 0° 191° (S) 3,400 6.3 -9.2°
Reaches altitude 10° 05:39:31 10° 187° (S) 2,469 5.6 -8.8°
Maximum altitude 05:45:02 55° 111° (ESE) 1,018 4.1 -7.9°
Drops below altitude 10° 05:50:35 10° 35° (NE) 2,481 6.0 -7.0°
Sets 05:53:04 0° 32° (NNE) 3,419 6.7 -6.6°
